{"data":{"norad_id":69543,"epoch":"2026-09-18T23:21:07.735680Z","epoch_age_seconds":165337,"freshness":"FRESH","line1":"1 69543U 26134F   26261.97300620  .00002702  00000+0  17604-3 0  9998","line2":"2 69543  97.6917 332.4605 0019410 311.4431  48.5129 15.08660780 14457","mean_motion":15.0866078,"eccentricity":0.001941,"inclination_deg":97.6917,"raan_deg":332.4605,"arg_perigee_deg":311.4431,"mean_anomaly_deg":48.5129,"bstar":0.00017604,"rev_number":1445,"period_min":95.448892096207,"perigee_km":526.86257780772,"apogee_km":553.71991626271,"semimajor_km":6918.4282470352,"source":"CELESTRAK","updated_at":"2026-09-20T09:00:24.949782Z"}}